Location: Unspecified
(0.0000°N, 0.0000°E)
Time: 19:45:47
(UTC+00:00)

SR - All Passes

Search period start: 24 February 2017 00:00
Search period end: 06 March 2017 00:00
Orbit: 575 x 883 km, 66.7° (Epoch: 24 February)

Date Brightness Start Highest point End Pass type
(mag) Time Alt. Az. Time Alt. Az. Time Alt. Az.
24 Feb - 05:11:54 10° NE 05:13:26 11° ENE 05:14:57 10° E visible
24 Feb - 06:49:51 10° NNW 06:55:28 54° WSW 07:00:45 10° S daylight
24 Feb - 17:35:53 10° SSE 17:39:01 19° ESE 17:42:18 10° ENE daylight
24 Feb - 19:17:48 10° WSW 19:20:48 18° WNW 19:23:56 10° NNW visible
25 Feb - 06:00:26 10° N 06:06:09 63° ENE 06:11:32 10° SSE daylight
25 Feb - 18:27:10 10° SW 18:31:24 50° WNW 18:35:57 10° N visible
26 Feb - 05:12:02 10° NNE 05:16:46 26° ENE 05:21:16 10° SE visible
26 Feb - 06:54:11 10° WNW 06:58:36 23° WSW 07:02:50 10° SSW daylight
26 Feb - 17:37:52 10° S 17:42:06 53° ESE 17:46:38 10° NNE daylight
27 Feb - 04:26:44 10° ENE 04:27:17 10° ENE 04:27:50 10° ENE visible
27 Feb - 06:03:42 10° NNW 06:09:20 57° WSW 06:14:37 10° S daylight
27 Feb - 16:49:51 10° SSE 16:52:52 18° ESE 16:56:00 10° ENE daylight
27 Feb - 18:31:27 10° WSW 18:34:38 19° WNW 18:37:58 10° NNW visible
28 Feb - 05:14:20 10° N 05:20:01 59° ENE 05:25:20 10° SSE visible
28 Feb - 17:40:57 10° SSW 17:45:14 54° WNW 17:49:51 10° N daylight
01 Mar - 04:26:02 10° NNE 04:30:37 24° ENE 04:34:59 10° ESE visible
01 Mar - 06:07:56 10° NW 06:12:28 25° WSW 06:16:47 10° SSW daylight
01 Mar - 16:51:43 10° S 16:55:56 49° ESE 17:00:28 10° NE daylight
02 Mar - 05:17:33 10° NNW 05:23:12 60° WSW 05:28:29 10° S visible
02 Mar - 16:03:49 10° SSE 16:06:42 17° ESE 16:09:42 10° ENE daylight
02 Mar - 17:45:06 10° WSW 17:48:27 21° WNW 17:51:59 10° NNW daylight
03 Mar - 04:28:15 10° N 04:33:53 55° ENE 04:39:08 10° SSE visible
03 Mar - 16:54:43 10° SSW 16:59:03 59° WNW 17:03:44 10° N daylight
04 Mar - 03:40:03 10° NNE 03:44:27 23° ENE 03:48:41 10° ESE visible
04 Mar - 05:21:42 10° NW 05:26:20 26° WSW 05:30:43 10° SSW visible
04 Mar - 16:05:34 10° S 16:09:46 45° ESE 16:14:16 10° NE daylight
05 Mar - 04:31:24 10° NNW 04:37:04 64° WSW 04:42:20 10° S visible
05 Mar - 15:17:48 10° SSE 15:20:33 16° ESE 15:23:22 10° ENE daylight
05 Mar - 16:58:46 10° WSW 17:02:16 22° WNW 17:05:59 10° NNW daylight
